Hourly Data Report for May 19, 2012

All times are specified in Local Standard Time (LST). Add 1 hour to adjust for Daylight Saving Time where and when it is observed.

YARMOUTH A
NOVA SCOTIA

43°49'37.000" N
66°05'17.000" W
42.90 m
8206495
71603
YQI

Download Data

Hourly Data (May 2012)
Hourly Data Report for May 19, 2012
Temp Definition
°C
Dew Point Temp Definition
°C
Rel Hum Definition
%
Wind Dir Definition
10's deg

Wind Spd Definition
km/h
Visibility Definition
km
Stn Press Definition
kPa
Hmdx Definition


Wind Chill Definition


Weather Definition


TIME
00:00 Legend Double Dagger 8.5 6.0 84 21 7 10.0 101.82     LegendNANA
01:00 Legend Double Dagger 6.9 5.7 92 19 8 10.0 101.79     LegendNANA
02:00 Legend Double Dagger 7.1 5.1 87 26 9 10.0 101.73     Cloudy
03:00 Legend Double Dagger 7.5 4.5 81 24 6 10.0 101.73     LegendNANA
04:00 Legend Double Dagger 6.0 4.3 89 28 4 10.0 101.72     LegendNANA
05:00 Legend Double Dagger 5.6 4.7 94   0 10.0 101.73     Mostly Cloudy
06:00 Legend Double Dagger 7.7 5.4 85 23 4 10.0 101.74     LegendNANA
07:00 Legend Double Dagger 10.8 7.2 78 20 4 10.0 101.76     LegendNANA
08:00 Legend Double Dagger 14.2 2.8 46 25 12 10.0 101.74     Mainly Clear
09:00 Legend Double Dagger 14.8 1.4 40 28 12 10.0 101.76     LegendNANA
10:00 Legend Double Dagger 16.1 2.9 41 27 10 10.0 101.74     LegendNANA
11:00 Legend Double Dagger 16.8 2.5 38 23 13 10.0 101.70     Mainly Clear
12:00 Legend Double Dagger 17.0 1.9 36 24 15 10.0 101.67     LegendNANA
13:00 Legend Double Dagger 17.0 1.9 36 25 15 10.0 101.63     LegendNANA
14:00 Legend Double Dagger 16.6 2.7 39 25 14 10.0 101.64     Mostly Cloudy
15:00 Legend Double Dagger 15.6 2.8 42 26 14 10.0 101.59     LegendNANA
16:00 Legend Double Dagger 15.9 2.8 41 25 13 10.0 101.54     LegendNANA
17:00 Legend Double Dagger 14.7 1.3 40 26 15 10.0 101.52     Cloudy
18:00 Legend Double Dagger 13.8 3.6 50 28 11 10.0 101.53     LegendNANA
19:00 Legend Double Dagger 12.1 3.4 55 27 10 10.0 101.58     LegendNANA
20:00 Legend Double Dagger 10.5 3.8 63 28 5 10.0 101.56     Cloudy
21:00 Legend Double Dagger 10.1 4.1 66 30 10 10.0 101.60     LegendNANA
22:00 Legend Double Dagger 9.8 4.8 71 28 6 10.0 101.63     LegendNANA
23:00 Legend Double Dagger 9.1 4.9 75 30 8 10.0 101.66     Mostly Cloudy

Notes on Data Quality.

Legend

  • E = Estimated
  • M = Missing
  • NA = Not Available
  • ‡ = Partner data that is not subject to review by the National Climate Archives
Date modified: